Year,Month,Day,Hour,Minute,Value (Times are PST for temperature in C)
2017,09,28,10,26,18.90
2017,09,28,10,27,19.00
2017,09,28,10,28,19.10
2017,09,28,10,29,19.10
2017,09,28,10,30,19.20
2017,09,28,10,31,19.30
2017,09,28,10,32,19.40
2017,09,28,10,33,19.40
2017,09,28,10,34,19.50
2017,09,28,10,35,19.50
2017,09,28,10,36,19.50
2017,09,28,10,37,19.60
2017,09,28,10,38,19.70
2017,09,28,10,39,19.70
2017,09,28,10,40,19.80
2017,09,28,10,41,19.80
2017,09,28,10,42,19.90
2017,09,28,10,43,19.90
2017,09,28,10,44,19.90
2017,09,28,10,45,19.90
2017,09,28,10,46,19.90
2017,09,28,10,47,19.90
2017,09,28,10,48,20.00
2017,09,28,10,49,20.10
2017,09,28,10,50,20.10
2017,09,28,10,51,20.10
2017,09,28,10,52,20.20
2017,09,28,10,53,20.20
2017,09,28,10,54,20.20
2017,09,28,10,55,20.20
2017,09,28,10,56,20.30
2017,09,28,10,57,20.30
2017,09,28,10,58,20.30
2017,09,28,10,59,20.30
2017,09,28,11,00,20.30
2017,09,28,11,01,20.30
2017,09,28,11,02,20.30
2017,09,28,11,03,20.30
2017,09,28,11,04,20.20
2017,09,28,11,05,20.20
2017,09,28,11,06,20.20
2017,09,28,11,07,20.20
2017,09,28,11,08,20.20
2017,09,28,11,09,20.20
2017,09,28,11,10,20.30
2017,09,28,11,11,20.40
2017,09,28,11,12,20.40
2017,09,28,11,13,20.50
2017,09,28,11,14,20.50
2017,09,28,11,15,20.50
2017,09,28,11,16,20.50
2017,09,28,11,17,20.50
2017,09,28,11,18,20.50
2017,09,28,11,19,20.60
2017,09,28,11,20,20.60
2017,09,28,11,21,20.60
2017,09,28,11,22,20.60
2017,09,28,11,23,20.60
2017,09,28,11,24,20.60
2017,09,28,11,25,20.50
2017,09,28,11,26,20.50
2017,09,28,11,27,20.50
2017,09,28,11,28,20.50
2017,09,28,11,29,20.50
2017,09,28,11,30,20.50
2017,09,28,11,31,20.50
2017,09,28,11,32,20.50
2017,09,28,11,33,20.60
2017,09,28,11,34,20.60
2017,09,28,11,35,20.60
2017,09,28,11,36,20.70
2017,09,28,11,37,20.70
2017,09,28,11,38,20.80
2017,09,28,11,39,20.80
2017,09,28,11,40,20.90
2017,09,28,11,41,21.00
2017,09,28,11,42,21.10
2017,09,28,11,43,21.20
2017,09,28,11,44,21.30
2017,09,28,11,45,21.30
2017,09,28,11,46,21.40
2017,09,28,11,47,21.50
2017,09,28,11,48,21.60
2017,09,28,11,49,21.60
2017,09,28,11,50,21.60
2017,09,28,11,51,21.60
2017,09,28,11,52,21.60
2017,09,28,11,53,21.60
2017,09,28,11,54,21.50
2017,09,28,11,55,21.50
2017,09,28,11,56,21.60
2017,09,28,11,57,21.60
2017,09,28,11,58,21.60
2017,09,28,11,59,21.60
2017,09,28,12,00,21.50
2017,09,28,12,01,21.40
2017,09,28,12,02,21.40
2017,09,28,12,03,21.40
2017,09,28,12,04,21.50
2017,09,28,12,05,21.60
2017,09,28,12,06,21.60
2017,09,28,12,07,21.60
2017,09,28,12,08,21.60
2017,09,28,12,09,21.70
2017,09,28,12,10,21.70
2017,09,28,12,11,21.70
2017,09,28,12,12,21.70
2017,09,28,12,13,21.70
2017,09,28,12,14,21.80
2017,09,28,12,15,21.80
2017,09,28,12,16,21.80
2017,09,28,12,17,21.80
2017,09,28,12,18,21.80
2017,09,28,12,19,21.80
2017,09,28,12,20,21.90
2017,09,28,12,21,21.90
2017,09,28,12,22,22.00
2017,09,28,12,23,22.00
2017,09,28,12,24,22.00
2017,09,28,12,25,22.00
2017,09,28,12,26,22.00
2017,09,28,12,27,22.00
2017,09,28,12,28,22.00
2017,09,28,12,29,22.00
2017,09,28,12,30,22.10
2017,09,28,12,31,22.10
2017,09,28,12,32,22.20
2017,09,28,12,33,22.20
2017,09,28,12,34,22.30
2017,09,28,12,35,22.40
2017,09,28,12,36,22.40
2017,09,28,12,37,22.50
2017,09,28,12,38,22.60
2017,09,28,12,39,22.60
2017,09,28,12,40,22.70
2017,09,28,12,41,22.80
2017,09,28,12,42,22.90
2017,09,28,12,43,22.90
2017,09,28,12,44,22.90
2017,09,28,12,45,22.90
2017,09,28,12,46,23.00
2017,09,28,12,47,23.10
2017,09,28,12,48,23.20
2017,09,28,12,49,23.30
2017,09,28,12,50,23.30
2017,09,28,12,51,23.30
2017,09,28,12,52,23.20
2017,09,28,12,53,23.20
2017,09,28,12,54,23.20
2017,09,28,12,55,23.20
2017,09,28,12,56,23.30
2017,09,28,12,57,23.30
2017,09,28,12,58,23.30
2017,09,28,12,59,23.30
2017,09,28,13,00,23.30
2017,09,28,13,01,23.20
2017,09,28,13,02,23.20
2017,09,28,13,03,23.30
2017,09,28,13,04,23.30
2017,09,28,13,05,23.30
2017,09,28,13,06,23.30
2017,09,28,13,07,23.30
2017,09,28,13,08,23.30
2017,09,28,13,09,23.30
2017,09,28,13,10,23.30
2017,09,28,13,11,23.40
2017,09,28,13,12,23.40
2017,09,28,13,13,23.40
2017,09,28,13,14,23.40
2017,09,28,13,15,23.40
2017,09,28,13,16,23.40
2017,09,28,13,17,23.40
2017,09,28,13,18,23.50
2017,09,28,13,19,23.60
2017,09,28,13,20,23.70
2017,09,28,13,21,23.70
2017,09,28,13,22,23.70
2017,09,28,13,23,23.70
2017,09,28,13,24,23.70
2017,09,28,13,25,23.70
2017,09,28,13,26,23.70
2017,09,28,13,27,23.70
2017,09,28,13,28,23.80
2017,09,28,13,29,23.80
2017,09,28,13,30,23.80
2017,09,28,13,31,23.80
2017,09,28,13,32,23.80
2017,09,28,13,33,23.80
2017,09,28,13,34,23.80
2017,09,28,13,35,23.80
2017,09,28,13,36,23.70
2017,09,28,13,37,23.70
2017,09,28,13,38,23.70
2017,09,28,13,39,23.70
2017,09,28,13,40,23.70
2017,09,28,13,41,23.70
2017,09,28,13,42,23.70
2017,09,28,13,43,23.70
2017,09,28,13,44,23.70
2017,09,28,13,45,23.80
2017,09,28,13,46,23.80
2017,09,28,13,47,23.90
2017,09,28,13,48,23.90
2017,09,28,13,49,23.90
2017,09,28,13,50,24.00
2017,09,28,13,51,24.10
2017,09,28,13,52,24.10
2017,09,28,13,53,24.10
2017,09,28,13,54,24.10
2017,09,28,13,55,24.10
2017,09,28,13,56,24.10
2017,09,28,13,57,24.20
2017,09,28,13,58,24.20
2017,09,28,13,59,24.30
2017,09,28,14,00,24.30
2017,09,28,14,01,24.30
2017,09,28,14,02,24.30
2017,09,28,14,03,24.30
2017,09,28,14,04,24.30
2017,09,28,14,05,24.30
2017,09,28,14,06,24.20
2017,09,28,14,07,24.10
2017,09,28,14,08,24.10
2017,09,28,14,09,24.10
2017,09,28,14,10,24.10
2017,09,28,14,11,24.10
2017,09,28,14,12,24.10
2017,09,28,14,13,24.10
2017,09,28,14,14,24.10
2017,09,28,14,15,24.10
2017,09,28,14,16,24.10
2017,09,28,14,17,24.10
2017,09,28,14,18,24.00
2017,09,28,14,19,23.90
2017,09,28,14,20,23.80
2017,09,28,14,21,23.70
2017,09,28,14,22,23.60
2017,09,28,14,23,23.40
2017,09,28,14,24,23.30
2017,09,28,14,25,23.20
2017,09,28,14,26,23.00
2017,09,28,14,27,22.80
2017,09,28,14,28,22.50
2017,09,28,14,29,22.20
2017,09,28,14,30,22.00
2017,09,28,14,31,21.90
2017,09,28,14,32,21.70
2017,09,28,14,33,21.70
2017,09,28,14,34,21.70
2017,09,28,14,35,21.80
2017,09,28,14,36,21.80
2017,09,28,14,37,21.90
2017,09,28,14,38,22.00
2017,09,28,14,39,22.00
2017,09,28,14,40,22.10
2017,09,28,14,41,22.10
2017,09,28,14,42,22.20
2017,09,28,14,43,22.30
2017,09,28,14,44,22.30
2017,09,28,14,45,22.40
2017,09,28,14,46,22.40
2017,09,28,14,47,22.50
2017,09,28,14,48,22.40
2017,09,28,14,49,22.40
2017,09,28,14,50,22.40
2017,09,28,14,51,22.50
2017,09,28,14,52,22.50
2017,09,28,14,53,22.60
2017,09,28,14,54,22.70
2017,09,28,14,55,22.70
2017,09,28,14,56,22.80
2017,09,28,14,57,22.90
2017,09,28,14,58,22.90
2017,09,28,14,59,22.90
2017,09,28,15,00,22.90
2017,09,28,15,01,23.00
2017,09,28,15,02,23.10
2017,09,28,15,03,23.10
2017,09,28,15,04,23.20
2017,09,28,15,05,23.30
2017,09,28,15,06,23.40
2017,09,28,15,07,23.60
2017,09,28,15,08,23.70
2017,09,28,15,09,23.70
2017,09,28,15,10,23.80
2017,09,28,15,11,23.80
2017,09,28,15,12,23.90
2017,09,28,15,13,23.90
2017,09,28,15,14,24.00
2017,09,28,15,15,24.10
2017,09,28,15,16,24.10
2017,09,28,15,17,24.30
2017,09,28,15,18,24.40
2017,09,28,15,19,24.50
2017,09,28,15,20,24.50
2017,09,28,15,21,24.70
2017,09,28,15,22,24.80
2017,09,28,15,23,24.90
2017,09,28,15,24,25.00
2017,09,28,15,25,25.20
2017,09,28,15,26,25.30
2017,09,28,15,27,25.40
2017,09,28,15,28,25.50
2017,09,28,15,29,25.60
2017,09,28,15,30,25.70
2017,09,28,15,31,25.60
2017,09,28,15,32,25.50
2017,09,28,15,33,25.30
2017,09,28,15,34,25.10
2017,09,28,15,35,24.90
2017,09,28,15,36,24.60
2017,09,28,15,37,24.40
2017,09,28,15,38,24.20
2017,09,28,15,39,23.90
2017,09,28,15,40,23.60
2017,09,28,15,41,23.40
2017,09,28,15,42,23.20
2017,09,28,15,43,23.00
2017,09,28,15,44,22.90
2017,09,28,15,45,22.80
2017,09,28,15,46,22.70
2017,09,28,15,47,22.60
2017,09,28,15,48,22.50
2017,09,28,15,49,22.30
2017,09,28,15,50,22.20
2017,09,28,15,51,22.00
2017,09,28,15,52,22.00
2017,09,28,15,53,22.00
2017,09,28,15,54,22.00
2017,09,28,15,55,22.00
2017,09,28,15,56,22.00
2017,09,28,15,57,21.90
2017,09,28,15,58,21.90
2017,09,28,15,59,21.90
2017,09,28,16,00,21.80
2017,09,28,16,01,21.80
2017,09,28,16,02,21.70
2017,09,28,16,03,21.70
2017,09,28,16,04,21.70
2017,09,28,16,05,21.60
2017,09,28,16,06,21.60
2017,09,28,16,07,21.60
2017,09,28,16,08,21.60
2017,09,28,16,09,21.60
2017,09,28,16,10,21.40
2017,09,28,16,11,21.40
2017,09,28,16,12,21.40
2017,09,28,16,13,21.30
2017,09,28,16,14,21.30
2017,09,28,16,15,21.30
2017,09,28,16,16,21.10
2017,09,28,16,17,21.10
2017,09,28,16,18,21.00
2017,09,28,16,19,21.00
2017,09,28,16,20,20.90
2017,09,28,16,21,20.90
2017,09,28,16,22,21.00
2017,09,28,16,23,21.00
2017,09,28,16,24,21.10
2017,09,28,16,25,21.10
2017,09,28,16,26,21.10
2017,09,28,16,27,21.10
2017,09,28,16,28,21.10
2017,09,28,16,29,21.10
2017,09,28,16,30,21.20
2017,09,28,16,31,21.20
2017,09,28,16,32,21.20
2017,09,28,16,33,21.20
2017,09,28,16,34,21.20
2017,09,28,16,35,21.20
2017,09,28,16,36,21.20
2017,09,28,16,37,21.20
2017,09,28,16,38,21.20
2017,09,28,16,39,21.20
2017,09,28,16,40,21.10
2017,09,28,16,41,21.10
2017,09,28,16,42,21.10
2017,09,28,16,43,21.10
2017,09,28,16,44,21.00
2017,09,28,16,45,21.00
2017,09,28,16,46,20.90
2017,09,28,16,47,20.90
2017,09,28,16,48,20.90
2017,09,28,16,49,20.80
2017,09,28,16,50,20.80
2017,09,28,16,51,20.80
2017,09,28,16,52,20.80
2017,09,28,16,53,20.80
2017,09,28,16,54,20.80
2017,09,28,16,55,20.90
2017,09,28,16,56,20.80
2017,09,28,16,57,20.70
2017,09,28,16,58,20.60
2017,09,28,16,59,20.60
2017,09,28,17,00,20.60
2017,09,28,17,01,20.60
2017,09,28,17,02,20.60
2017,09,28,17,03,20.60
2017,09,28,17,04,20.60
2017,09,28,17,05,20.70
2017,09,28,17,06,20.70
2017,09,28,17,07,20.80
2017,09,28,17,08,20.80
2017,09,28,17,09,20.70
2017,09,28,17,10,20.70
2017,09,28,17,11,20.70
2017,09,28,17,12,20.60
2017,09,28,17,13,20.60
2017,09,28,17,14,20.60
2017,09,28,17,15,20.70
2017,09,28,17,16,20.70
2017,09,28,17,17,20.70
2017,09,28,17,18,20.70
2017,09,28,17,19,20.70
2017,09,28,17,20,20.70
2017,09,28,17,21,20.60
2017,09,28,17,22,20.60
2017,09,28,17,23,20.60
2017,09,28,17,24,20.50
2017,09,28,17,25,20.50
2017,09,28,17,26,20.50
2017,09,28,17,27,20.50
2017,09,28,17,28,20.50
2017,09,28,17,29,20.50
2017,09,28,17,30,20.60
2017,09,28,17,31,20.60
2017,09,28,17,32,20.60
2017,09,28,17,33,20.60
2017,09,28,17,34,20.60
2017,09,28,17,35,20.60
2017,09,28,17,36,20.70
2017,09,28,17,37,20.70
2017,09,28,17,38,20.80
2017,09,28,17,39,20.90
2017,09,28,17,40,21.00
2017,09,28,17,41,21.00
2017,09,28,17,42,21.10
2017,09,28,17,43,21.10
2017,09,28,17,44,21.20
2017,09,28,17,45,21.20
2017,09,28,17,46,21.20
2017,09,28,17,47,21.30
2017,09,28,17,48,21.30
2017,09,28,17,49,21.30
2017,09,28,17,50,21.30
2017,09,28,17,51,21.20
2017,09,28,17,52,21.20
2017,09,28,17,53,21.20
2017,09,28,17,54,21.10
2017,09,28,17,55,21.10
2017,09,28,17,56,21.00
2017,09,28,17,57,21.00
2017,09,28,17,58,20.90
2017,09,28,17,59,20.90
2017,09,28,18,00,20.90
2017,09,28,18,01,20.90
2017,09,28,18,02,20.90
2017,09,28,18,03,20.90
2017,09,28,18,04,20.80
2017,09,28,18,05,20.80
2017,09,28,18,06,20.80
2017,09,28,18,07,20.80
2017,09,28,18,08,20.70
2017,09,28,18,09,20.70
2017,09,28,18,10,20.70
2017,09,28,18,11,20.70
2017,09,28,18,12,20.60
2017,09,28,18,13,20.60
2017,09,28,18,14,20.50
2017,09,28,18,15,20.50
2017,09,28,18,16,20.50
2017,09,28,18,17,20.50
2017,09,28,18,18,20.40
2017,09,28,18,19,20.40
2017,09,28,18,20,20.40
2017,09,28,18,21,20.40
2017,09,28,18,22,20.40
2017,09,28,18,23,20.50
2017,09,28,18,24,20.50
2017,09,28,18,25,20.50
2017,09,28,18,26,20.60
2017,09,28,18,27,20.60
2017,09,28,18,28,20.60
2017,09,28,18,29,20.60
2017,09,28,18,30,20.50
2017,09,28,18,31,20.50
2017,09,28,18,32,20.50
2017,09,28,18,33,20.50
2017,09,28,18,34,20.50
2017,09,28,18,35,20.50
2017,09,28,18,36,20.50
2017,09,28,18,37,20.50
2017,09,28,18,38,20.50
2017,09,28,18,39,20.40
2017,09,28,18,40,20.40
2017,09,28,18,41,20.30
2017,09,28,18,42,20.30
2017,09,28,18,43,20.30
2017,09,28,18,44,20.30
2017,09,28,18,45,20.30
2017,09,28,18,46,20.30
2017,09,28,18,47,20.20
2017,09,28,18,48,20.20
2017,09,28,18,49,20.20
2017,09,28,18,50,20.20
2017,09,28,18,51,20.20
2017,09,28,18,52,20.20
2017,09,28,18,53,20.20
2017,09,28,18,54,20.20
2017,09,28,18,55,20.20
2017,09,28,18,56,20.20
2017,09,28,18,57,20.20
2017,09,28,18,58,20.20
2017,09,28,18,59,20.20
2017,09,28,19,00,20.20
2017,09,28,19,01,20.60
2017,09,28,19,02,20.80
2017,09,28,19,03,20.90
2017,09,28,19,04,20.90
2017,09,28,19,05,20.90
2017,09,28,19,06,20.90
2017,09,28,19,07,20.90
2017,09,28,19,08,20.90
2017,09,28,19,09,20.90
2017,09,28,19,10,21.00
2017,09,28,19,11,21.00
2017,09,28,19,12,20.90
2017,09,28,19,13,20.90
2017,09,28,19,14,20.90
2017,09,28,19,15,20.90
2017,09,28,19,16,20.90
2017,09,28,19,17,20.90
2017,09,28,19,18,21.00
2017,09,28,19,19,21.10
2017,09,28,19,20,21.10
2017,09,28,19,21,21.10
2017,09,28,19,22,21.10
2017,09,28,19,23,21.10
2017,09,28,19,24,21.10
2017,09,28,19,25,21.10
2017,09,28,19,26,21.10
2017,09,28,19,27,21.10
2017,09,28,19,28,21.10
2017,09,28,19,29,21.10
2017,09,28,19,30,21.10
2017,09,28,19,31,21.10
2017,09,28,19,32,21.10
2017,09,28,19,33,21.00
2017,09,28,19,34,20.90
2017,09,28,19,35,20.90
2017,09,28,19,36,20.80
2017,09,28,19,37,20.80
2017,09,28,19,38,20.80
2017,09,28,19,39,20.80
2017,09,28,19,40,20.80
2017,09,28,19,41,20.90
2017,09,28,19,42,20.90
2017,09,28,19,43,20.90
2017,09,28,19,44,21.00
2017,09,28,19,45,21.00
2017,09,28,19,46,21.00
2017,09,28,19,47,21.10
2017,09,28,19,48,21.20
2017,09,28,19,49,21.20
2017,09,28,19,50,21.20
2017,09,28,19,51,21.20
2017,09,28,19,52,21.20
2017,09,28,19,53,21.20
2017,09,28,19,54,21.20
2017,09,28,19,55,21.20
2017,09,28,19,56,21.20
2017,09,28,19,57,21.20
2017,09,28,19,58,21.20
